User: anonymous   Login
Location: Kalberh�ni
(46.4610°N, 7.2453°E)
Time: 15:26:03
(UTC+00:00)
Language:

Cosmos 1869 - Orbit

View from above orbital plane
View from above orbital plane
View from above satellite
View from above satellite

Ground track
Ground track

The orbit data is extracted from the following two-line orbital elements,

1 18214U 87062A   21262.82644556  .00000059  00000-0  17774-5 0  9997
2 18214  82.5013  15.6135 0032345 337.7284  22.2537 15.08672061841739
Epoch (UTC): 19 September 2021 19:50:04
Eccentricity: 0.0032345
inclination: 82.5013°
perigee height: 518 km
apogee height: 562 km
right ascension of ascending node: 15.6135°
argument of perigee: 337.7284°
revolutions per day: 15.08672061
mean anomaly at epoch: 22.2537°
orbit number at epoch: 84173

The dashed part of the orbit path shows where the satellite is in the earth's shadow,  

DLR